GW0655 Weather Reports


time (UTC)temp
C
wind
direction
speed
KPH
gust
KPH
rain 1hr
cm
rain 24hr
cm
rain mn
cm
humidity
%
barometer
mb
20260901042047 30 205 1.6 1.6 0.00 0.00 0.00 62 1016.9
20260901041542 30 234 1.6 1.6 0.00 0.00 0.00 61 1016.5
20260901041037 30 99 1.6 3.2 0.00 0.00 0.00 61 1016.9
20260901040536 30 145 4.8 8.0 0.00 0.00 0.00 60 1016.9
20260901040031 30 225 1.6 1.6 0.00 0.00 0.00 59 1016.9
20260901035528 30 220 1.6 1.6 0.00 0.00 0.00 59 1016.9
20260901035027 30 207 3.2 3.2 0.00 0.00 0.00 58 1016.9
20260901034522 30 124 8.0 9.7 0.00 0.00 0.00 58 1016.5
20260901034017 30 141 1.6 3.2 0.00 0.00 0.00 57 1016.9
20260901033515 30 190 4.8 8.0 0.00 0.00 0.00 57 1016.5
20260901033010 30 226 1.6 1.6 0.00 0.00 0.00 56 1016.5
20260901032504 31 202 0.0 1.6 0.00 0.00 0.00 55 1016.5
20260901032003 31 171 0.0 1.6 0.00 0.00 0.00 55 1016.5
20260901031459 31 254 1.6 1.6 0.00 0.00 0.00 54 1016.5
20260901030954 31 151 8.0 8.0 0.00 0.00 0.00 53 1016.5
20260901030449 31 103 3.2 4.8 0.00 0.00 0.00 53 1016.2
20260901025948 31 142 1.6 1.6 0.00 0.00 0.00 52 1016.2
20260901025444 31 148 6.4 9.7 0.00 0.00 0.00 52 1016.2
20260901024943 31 141 1.6 1.6 0.00 0.00 0.00 51 1016.2
20260901024438 31 186 1.6 3.2 0.00 0.00 0.00 50 1016.2
20260901023936 31 189 3.2 3.2 0.00 0.00 0.00 49 1015.8
20260901023431 31 224 0.0 1.6 0.00 0.00 0.00 47 1015.8
20260901022926 32 161 3.2 3.2 0.00 0.00 0.00 47 1015.5
20260901022422 32 94 4.8 4.8 0.00 0.00 0.00 46 1015.5
20260901021916 32 202 3.2 3.2 0.00 0.00 0.00 46 1015.5
20260901021412 32 199 4.8 4.8 0.00 0.00 0.00 45 1015.5
20260901020907 32 157 4.8 4.8 0.00 0.00 0.00 45 1015.5
20260901020403 32 127 1.6 1.6 0.00 0.00 0.00 45 1015.5
20260901015902 32 241 0.0 0.0 0.00 0.00 0.00 45 1015.2
20260901015358 32 244 0.0 1.6 0.00 0.00 0.00 44 1015.2
20260901014857 32 92 1.6 3.2 0.00 0.00 0.00 43 1015.2
20260901014354 33 223 1.6 1.6 0.00 0.00 0.00 43 1015.2
20260901013849 33 188 0.0 0.0 0.00 0.00 0.00 43 1014.8
20260901013345 33 169 1.6 3.2 0.00 0.00 0.00 42 1014.8
20260901012840 33 198 0.0 0.0 0.00 0.00 0.00 42 1014.8
20260901012335 33 239 1.6 1.6 0.00 0.00 0.00 41 1014.8
20260901011831 33 126 3.2 3.2 0.00 0.00 0.00 40 1014.8
20260901011326 33 190 0.0 0.0 0.00 0.00 0.00 40 1014.8
20260901010819 33 119 1.6 1.6 0.00 0.00 0.00 40 1014.5
20260901010314 34 224 0.0 0.0 0.00 0.00 0.00 40 1014.5
20260901005813 34 190 3.2 4.8 0.00 0.00 0.00 39 1014.5
20260901005308 34 233 0.0 1.6 0.00 0.00 0.00 39 1014.5
20260901004803 35 199 3.2 3.2 0.00 0.00 0.00 39 1014.5
20260901004257 35 173 0.0 0.0 0.00 0.00 0.00 38 1014.5
20260901003756 35 139 1.6 3.2 0.00 0.00 0.00 38 1014.5
20260901003251 35 235 0.0 0.0 0.00 0.00 0.00 38 1014.5
20260901002744 35 146 0.0 1.6 0.00 0.00 0.00 38 1014.5
20260901002240 35 153 3.2 3.2 0.00 0.00 0.00 37 1014.5
20260901001735 35 160 0.0 1.6 0.00 0.00 0.00 37 1014.8
20260901001230 35 146 1.6 3.2 0.00 0.00 0.00 37 1014.5
20260901000725 36 175 0.0 1.6 0.00 0.00 0.00 37 1014.5
20260901000220 36 173 4.8 4.8 0.00 0.00 0.00 36 1014.5
20260831235714 36 257 3.2 3.2 0.00 0.00 0.00 36 1014.5
20260831235210 36 207 1.6 3.2 0.00 0.00 0.00 35 1014.5
20260831234709 36 141 4.8 4.8 0.00 0.00 0.00 35 1014.5
20260831234204 36 163 3.2 3.2 0.00 0.00 0.00 35 1014.1
20260831233659 36 123 4.8 11.3 0.00 0.00 0.00 35 1014.5
20260831233154 36 281 1.6 3.2 0.00 0.00 0.00 34 1014.5
20260831232649 37 196 4.8 8.0 0.00 0.00 0.00 34 1014.1
20260831232146 37 190 4.8 4.8 0.00 0.00 0.00 35 1014.5
20260831231642 37 200 3.2 3.2 0.00 0.00 0.00 35 1014.5
20260831231137 37 259 3.2 4.8 0.00 0.00 0.00 35 1014.5
20260831230632 37 106 4.8 9.7 0.00 0.00 0.00 35 1014.5
20260831230127 37 127 4.8 8.0 0.00 0.00 0.00 35 1014.5
20260831225621 37 228 6.4 9.7 0.00 0.00 0.00 35 1014.5
20260831225116 37 111 3.2 4.8 0.00 0.00 0.00 35 1014.5
20260831224606 36 152 1.6 3.2 0.00 0.00 0.00 36 1014.5
20260831224101 36 115 3.2 4.8 0.00 0.00 0.00 36 1014.8
20260831223557 36 185 1.6 3.2 0.00 0.00 0.00 37 1014.8
20260831223053 37 130 4.8 8.0 0.00 0.00 0.00 36 1014.8
20260831222549 37 143 6.4 11.3 0.00 0.00 0.00 36 1014.8
20260831222048 38 152 6.4 9.7 0.00 0.00 0.00 35 1014.8
20260831221544 38 262 0.0 1.6 0.00 0.00 0.00 35 1014.8
20260831221039 37 281 0.0 0.0 0.00 0.00 0.00 36 1014.8
20260831220534 38 58 1.6 3.2 0.00 0.00 0.00 36 1014.8
20260831220030 37 314 0.0 1.6 0.00 0.00 0.00 36 1014.8
20260831215525 37 132 3.2 4.8 0.00 0.00 0.00 37 1014.5
20260831215021 38 71 4.8 4.8 0.00 0.00 0.00 36 1014.8
20260831214518 38 167 9.7 12.9 0.00 0.00 0.00 36 1014.8
20260831214014 37 277 4.8 4.8 0.00 0.00 0.00 36 1014.8
20260831213510 37 202 4.8 8.0 0.00 0.00 0.00 36 1015.2
20260831213010 37 236 6.4 8.0 0.00 0.00 0.00 36 1015.2
20260831212506 37 197 1.6 1.6 0.00 0.00 0.00 37 1015.2
20260831212001 37 146 4.8 4.8 0.00 0.00 0.00 37 1015.2
20260831211456 37 158 4.8 8.0 0.00 0.00 0.00 37 1015.2
20260831210955 37 150 4.8 4.8 0.00 0.00 0.00 36 1015.2
20260831210450 38 207 9.7 11.3 0.00 0.00 0.00 37 1015.2
20260831205946 38 256 4.8 8.0 0.00 0.00 0.00 37 1015.5
20260831205441 38 146 6.4 11.3 0.00 0.00 0.00 36 1015.5
20260831204937 37 206 4.8 8.0 0.00 0.00 0.00 37 1015.5
20260831204436 37 84 4.8 11.3 0.00 0.00 0.00 37 1016.2
20260831203930 37 203 4.8 4.8 0.00 0.00 0.00 37 1016.2
20260831203424 37 170 8.0 11.3 0.00 0.00 0.00 38 1016.2
20260831202922 37 152 4.8 8.0 0.00 0.00 0.00 37 1016.2
20260831202418 36 204 4.8 8.0 0.00 0.00 0.00 39 1016.2
20260831201912 36 261 4.8 8.0 0.00 0.00 0.00 41 1016.2
20260831201411 36 123 1.6 3.2 0.00 0.00 0.00 42 1016.2
20260831200907 36 171 1.6 1.6 0.00 0.00 0.00 42 1016.5
20260831200402 36 277 3.2 3.2 0.00 0.00 0.00 42 1016.5
20260831195856 36 144 4.8 8.0 0.00 0.00 0.00 41 1016.5
20260831195352 35 270 1.6 1.6 0.00 0.00 0.00 42 1016.5
20260831194847 36 181 4.8 4.8 0.00 0.00 0.00 43 1016.5
20260831194343 35 165 1.6 3.2 0.00 0.00 0.00 43 1016.9
20260831193842 37 141 1.6 1.6 0.00 0.00 0.00 42 1016.9
20260831193337 37 232 3.2 4.8 0.00 0.00 0.00 40 1017.2
20260831192832 37 180 3.2 8.0 0.00 0.00 0.00 40 1017.2
20260831192332 37 267 3.2 3.2 0.00 0.00 0.00 40 1017.2
20260831191828 36 269 4.8 4.8 0.00 0.00 0.00 41 1017.2
20260831191324 36 146 3.2 11.3 0.00 0.00 0.00 41 1017.2
20260831190819 36 205 8.0 11.3 0.00 0.00 0.00 43 1017.2
20260831190314 37 207 4.8 4.8 0.00 0.00 0.00 42 1017.2
20260831185813 37 169 4.8 8.0 0.00 0.00 0.00 42 1017.5
20260831185309 36 204 0.0 1.6 0.00 0.00 0.00 43 1017.5
20260831184808 36 214 4.8 8.0 0.00 0.00 0.00 43 1017.5
20260831184304 36 235 3.2 3.2 0.00 0.00 0.00 43 1017.5
20260831183759 35 74 4.8 9.7 0.00 0.00 0.00 45 1017.9
20260831183258 35 143 8.0 11.3 0.00 0.00 0.00 46 1017.9
20260831182757 36 138 8.0 11.3 0.00 0.00 0.00 43 1017.9
20260831182253 35 77 3.2 3.2 0.00 0.00 0.00 46 1017.9
20260831181748 36 191 6.4 8.0 0.00 0.00 0.00 45 1018.2
20260831181243 35 108 3.2 3.2 0.00 0.00 0.00 46 1017.9
20260831180743 35 204 4.8 4.8 0.00 0.00 0.00 46 1017.9
20260831180238 35 312 3.2 3.2 0.00 0.00 0.00 47 1018.2
20260831175737 35 202 3.2 4.8 0.00 0.00 0.00 46 1018.2
20260831175234 35 277 3.2 3.2 0.00 0.00 0.00 47 1018.2
20260831174729 35 184 4.8 8.0 0.00 0.00 0.00 46 1018.2
20260831174224 35 195 3.2 4.8 0.00 0.00 0.00 47 1018.5
20260831173724 35 236 3.2 3.2 0.00 0.00 0.00 49 1018.5
20260831173218 35 218 8.0 11.3 0.00 0.00 0.00 47 1018.9
20260831172713 34 187 0.0 1.6 0.00 0.00 0.00 50 1018.9
20260831172208 34 242 6.4 8.0 0.00 0.00 0.00 51 1018.9
20260831171703 33 240 3.2 3.2 0.00 0.00 0.00 51 1018.9
20260831171200 32 277 1.6 1.6 0.00 0.00 0.00 55 1018.9
20260831170656 33 259 0.0 0.0 0.00 0.00 0.00 55 1018.5
20260831170153 33 251 4.8 9.7 0.00 0.00 0.00 54 1018.9
20260831165648 33 305 6.4 9.7 0.00 0.00 0.00 55 1018.9
20260831165145 33 231 1.6 3.2 0.00 0.00 0.00 55 1018.9
20260831164641 33 180 4.8 8.0 0.00 0.00 0.00 54 1018.9
20260831164136 33 222 4.8 8.0 0.00 0.00 0.00 55 1018.9
20260831163631 33 183 4.8 4.8 0.00 0.00 0.00 56 1019.3
20260831163127 32 181 6.4 8.0 0.00 0.00 0.00 59 1018.9
20260831162626 33 215 6.4 9.7 0.00 0.00 0.00 56 1018.9
20260831162124 32 183 4.8 4.8 0.00 0.00 0.00 59 1018.9
20260831161620 32 220 4.8 8.0 0.00 0.00 0.00 60 1018.9
20260831161117 31 235 3.2 4.8 0.00 0.00 0.00 62 1018.9
20260831160615 32 144 4.8 9.7 0.00 0.00 0.00 60 1019.3
20260831160111 32 158 4.8 4.8 0.00 0.00 0.00 61 1018.9
20260831155605 32 271 6.4 8.0 0.00 0.00 0.00 60 1019.3
20260831155101 32 213 4.8 4.8 0.00 0.00 0.00 60 1018.9
20260831154557 32 238 3.2 4.8 0.00 0.00 0.00 59 1018.9
20260831154056 31 223 4.8 4.8 0.00 0.00 0.00 60 1018.9
20260831153555 32 206 6.4 11.3 0.00 0.00 0.00 61 1018.9
20260831153053 31 221 1.6 1.6 0.00 0.00 0.00 65 1018.5
20260831152548 31 78 4.8 4.8 0.00 0.00 0.00 67 1018.9
20260831152043 31 265 1.6 1.6 0.00 0.00 0.00 65 1018.5
20260831151542 31 343 1.6 1.6 0.00 0.00 0.00 65 1018.9
20260831151037 30 142 1.6 3.2 0.00 0.00 0.00 70 1018.9
20260831150532 30 234 9.7 11.3 0.00 0.00 0.00 72 1018.5
20260831150029 29 216 4.8 4.8 0.00 0.00 0.00 74 1018.9
20260831145522 30 207 4.8 4.8 0.00 0.00 0.00 74 1018.9
20260831145019 30 281 1.6 3.2 0.00 0.00 0.00 73 1018.5
20260831144514 29 207 4.8 4.8 0.00 0.00 0.00 76 1018.5
20260831144010 30 187 4.8 4.8 0.00 0.00 0.00 75 1018.9
20260831143504 30 115 1.6 3.2 0.00 0.00 0.00 76 1018.5
20260831143000 29 262 1.6 1.6 0.00 0.00 0.00 77 1018.5
20260831142456 29 180 1.6 1.6 0.00 0.00 0.00 78 1018.5
20260831141955 28 254 3.2 4.8 0.00 0.00 0.00 80 1018.2
20260831141449 29 139 1.6 1.6 0.00 0.00 0.00 79 1018.2
20260831140944 28 172 0.0 0.0 0.00 0.00 0.00 82 1018.9
20260831140439 28 188 4.8 4.8 0.00 0.00 0.00 82 1018.5
20260831135938 27 232 3.2 4.8 0.00 0.00 0.00 84 1018.5
20260831135437 27 174 4.8 4.8 0.00 0.00 0.00 84 1018.5
20260831134932 27 202 8.0 9.7 0.00 0.00 0.00 84 1018.5
20260831134429 27 215 1.6 1.6 0.00 0.00 0.00 85 1018.2
20260831133929 27 251 0.0 0.0 0.00 0.00 0.00 89 1017.9
20260831133429 26 188 1.6 3.2 0.00 0.00 0.00 90 1018.2
20260831132924 26 191 1.6 3.2 0.00 0.00 0.00 91 1017.9
20260831132419 26 222 1.6 1.6 0.00 0.00 0.00 92 1018.2
20260831131919 26 226 1.6 1.6 0.00 0.00 0.00 93 1017.9
20260831131414 25 236 0.0 0.0 0.00 0.00 0.00 93 1017.9
20260831130910 25 210 3.2 3.2 0.00 0.00 0.00 93 1017.9
20260831130405 25 247 0.0 0.0 0.00 0.00 0.00 94 1017.9
20260831125904 25 207 1.6 1.6 0.00 0.00 0.00 94 1017.9
20260831125359 25 264 0.0 1.6 0.00 0.00 0.00 94 1017.9
20260831124854 25 242 0.0 0.0 0.00 0.00 0.00 94 1017.9
20260831124350 25 222 0.0 0.0 0.00 0.00 0.00 94 1017.9
20260831123845 25 241 0.0 0.0 0.00 0.00 0.00 94 1017.9
20260831123344 25 232 0.0 0.0 0.00 0.00 0.00 94 1017.5
20260831122839 25 239 0.0 0.0 0.00 0.00 0.00 94 1017.9
20260831122335 25 253 0.0 0.0 0.00 0.00 0.00 93 1017.9
20260831121834 25 242 0.0 0.0 0.00 0.00 0.00 93 1017.5
20260831121331 25 246 0.0 1.6 0.00 0.00 0.00 93 1017.5
20260831120826 25 237 0.0 0.0 0.00 0.00 0.00 93 1017.5
20260831120320 25 242 0.0 0.0 0.00 0.00 0.00 93 1017.5
20260831115815 25 248 0.0 1.6 0.00 0.00 0.00 92 1017.2
20260831115312 25 253 0.0 0.0 0.00 0.00 0.00 92 1017.2
20260831114810 25 234 0.0 1.6 0.00 0.00 0.00 92 1017.2
20260831114304 25 231 1.6 3.2 0.00 0.00 0.00 92 1017.5
20260831113800 25 205 3.2 3.2 0.00 0.00 0.00 92 1017.5
20260831113259 25 213 0.0 1.6 0.00 0.00 0.00 91 1017.5
20260831112754 25 245 1.6 1.6 0.00 0.00 0.00 91 1017.5
20260831112249 25 218 1.6 3.2 0.00 0.00 0.00 91 1017.5
20260831111745 26 232 0.0 0.0 0.00 0.00 0.00 91 1017.5
20260831111241 26 234 0.0 1.6 0.00 0.00 0.00 91 1017.5
20260831110737 26 225 1.6 1.6 0.00 0.00 0.00 91 1017.2
20260831110231 26 240 0.0 1.6 0.00 0.00 0.00 91 1017.2
20260831105730 25 242 1.6 1.6 0.00 0.00 0.00 91 1017.5
20260831105226 25 215 0.0 0.0 0.00 0.00 0.00 91 1017.5
20260831104720 25 183 3.2 3.2 0.00 0.00 0.00 91 1017.5
20260831104217 25 232 0.0 0.0 0.00 0.00 0.00 91 1017.5
20260831103717 25 169 0.0 0.0 0.00 0.00 0.00 91 1017.5
20260831103213 25 204 1.6 3.2 0.00 0.00 0.00 90 1017.5
20260831102712 25 178 3.2 3.2 0.00 0.00 0.00 90 1017.2
20260831102207 26 221 1.6 1.6 0.00 0.00 0.00 90 1017.2
20260831101703 26 252 0.0 1.6 0.00 0.00 0.00 90 1017.2
20260831101158 26 253 0.0 0.0 0.00 0.00 0.00 90 1017.2
20260831100654 26 239 0.0 0.0 0.00 0.00 0.00 89 1017.2
20260831100150 26 215 3.2 3.2 0.00 0.00 0.00 89 1017.5
20260831095648 26 201 4.8 4.8 0.00 0.00 0.00 89 1017.2
20260831095143 26 257 0.0 0.0 0.00 0.00 0.00 88 1017.2
20260831094638 26 199 3.2 3.2 0.00 0.00 0.00 88 1017.5
20260831094135 26 261 1.6 1.6 0.00 0.00 0.00 88 1017.2
20260831093630 26 248 1.6 1.6 0.00 0.00 0.00 88 1017.5
20260831093126 26 212 4.8 4.8 0.00 0.00 0.00 88 1017.2
20260831092622 26 207 4.8 4.8 0.00 0.00 0.00 88 1017.5
20260831092117 26 195 1.6 1.6 0.00 0.00 0.00 87 1017.2
20260831091617 26 154 1.6 1.6 0.00 0.00 0.00 87 1017.2
20260831091112 26 176 3.2 3.2 0.00 0.00 0.00 87 1017.2
20260831090608 26 239 3.2 3.2 0.00 0.00 0.00 87 1017.2
20260831090104 26 232 1.6 1.6 0.00 0.00 0.00 87 1017.2
20260831085559 26 251 0.0 1.6 0.00 0.00 0.00 87 1017.2
20260831085054 26 170 3.2 3.2 0.00 0.00 0.00 87 1017.2
20260831084550 26 249 1.6 1.6 0.00 0.00 0.00 87 1017.2
20260831084046 26 244 3.2 3.2 0.00 0.00 0.00 86 1017.2
20260831083542 26 201 1.6 3.2 0.00 0.00 0.00 86 1017.2
20260831083036 26 255 1.6 1.6 0.00 0.00 0.00 86 1017.2
20260831082535 26 245 3.2 3.2 0.00 0.00 0.00 86 1017.5
20260831082031 26 152 0.0 1.6 0.00 0.00 0.00 85 1017.5
20260831081526 26 256 0.0 1.6 0.00 0.00 0.00 85 1017.2
20260831081022 26 243 3.2 3.2 0.00 0.00 0.00 85 1017.5
20260831080516 26 206 3.2 3.2 0.00 0.00 0.00 84 1017.2
20260831080012 26 204 4.8 4.8 0.00 0.00 0.00 84 1017.2
20260831075507 26 175 3.2 3.2 0.00 0.00 0.00 84 1017.5
20260831074957 27 207 4.8 4.8 0.00 0.00 0.00 83 1017.2
20260831074456 27 185 1.6 1.6 0.00 0.00 0.00 83 1017.2
20260831073951 27 203 4.8 9.7 0.00 0.00 0.00 83 1017.5
20260831073450 27 251 1.6 1.6 0.00 0.00 0.00 82 1017.5
20260831072949 27 244 3.2 3.2 0.00 0.00 0.00 81 1017.5
20260831072446 27 206 3.2 3.2 0.00 0.00 0.00 81 1017.5
20260831071942 27 250 0.0 1.6 0.00 0.00 0.00 80 1017.2
20260831071441 27 235 1.6 1.6 0.00 0.00 0.00 80 1017.2
20260831070936 27 220 1.6 3.2 0.00 0.00 0.00 79 1017.5
20260831070435 27 158 6.4 8.0 0.00 0.00 0.00 78 1017.5
20260831065935 27 203 3.2 3.2 0.00 0.00 0.00 78 1017.2
20260831065433 27 207 1.6 1.6 0.00 0.00 0.00 77 1017.5
20260831064928 27 193 1.6 1.6 0.00 0.00 0.00 77 1017.5
20260831064423 27 248 1.6 1.6 0.00 0.00 0.00 76 1017.5
20260831063919 27 190 1.6 3.2 0.00 0.00 0.00 76 1017.5
20260831063414 27 207 4.8 4.8 0.00 0.00 0.00 76 1017.5
20260831062913 27 206 3.2 3.2 0.00 0.00 0.00 75 1017.5
20260831062409 28 213 3.2 4.8 0.00 0.00 0.00 75 1017.5
20260831061908 28 177 4.8 4.8 0.00 0.00 0.00 74 1017.9
20260831061407 28 183 3.2 3.2 0.00 0.00 0.00 74 1017.5
20260831060903 28 234 1.6 1.6 0.00 0.00 0.00 73 1017.5
20260831060358 28 215 3.2 4.8 0.00 0.00 0.00 73 1017.2
20260831055857 28 230 3.2 4.8 0.00 0.00 0.00 73 1017.5
20260831055352 28 175 6.4 8.0 0.00 0.00 0.00 72 1017.2
20260831054848 28 175 3.2 3.2 0.00 0.00 0.00 72 1017.2
20260831054343 28 229 1.6 3.2 0.00 0.00 0.00 71 1017.2
20260831053842 28 259 3.2 3.2 0.00 0.00 0.00 71 1017.5
20260831053340 28 238 4.8 4.8 0.00 0.00 0.00 71 1017.2
20260831052835 28 247 0.0 1.6 0.00 0.00 0.00 70 1017.2
20260831052334 28 221 1.6 1.6 0.00 0.00 0.00 69 1017.2
20260831051833 29 208 4.8 8.0 0.00 0.00 0.00 69 1017.2
20260831051331 29 242 1.6 1.6 0.00 0.00 0.00 68 1016.9
20260831050826 29 224 3.2 3.2 0.00 0.00 0.00 68 1017.2
20260831050326 29 192 3.2 4.8 0.00 0.00 0.00 67 1017.2
20260831045820 29 286 0.0 0.0 0.00 0.00 0.00 67 1016.9
20260831045314 30 175 4.8 4.8 0.00 0.00 0.00 67 1016.9
20260831044809 30 199 6.4 9.7 0.00 0.00 0.00 66 1017.2
20260831044304 30 140 1.6 3.2 0.00 0.00 0.00 65 1016.9
20260831043800 30 218 8.0 12.9 0.00 0.00 0.00 65 1017.2
20260831043254 30 169 4.8 4.8 0.00 0.00 0.00 64 1016.9
20260831042754 30 172 3.2 3.2 0.00 0.00 0.00 63 1016.9